アトラス彗星

C/2019 L3 ( ATLAS )

English version
Home page
Updated on September 17, 2019

---------------------------------------------------------------------

・ プロフィール

発見日 2019年6月10日
発見光度 18.1等
発見者 Asteroid Terrestrial-Impact Last Alert System (ATLAS) search program

・ 写真集

・ 軌道要素

Epoch 2022 Jan. 21.0 TT = JDT 2459600.5
T 2022 Jan.  9.29436 TT                                 Williams
q   3.5532966            (2000.0)            P               Q
z  -0.0006078      Peri.  171.60987     -0.26052728     -0.66630897
 +/-0.0000725      Node   290.79111     +0.83675311     +0.20518158
e   1.0021597      Incl.   48.36133     +0.48163239     -0.71689112
From 261 observations 2019 June 10-Aug. 20, mean residual 0".4.

・ 星図

・ 光度変化

        m1 = 4.5 + 5 logΔ + 10.0 log r

---------------------------------------------------------------------

軌道要素はM.P.E.C. 2019-Q135に掲載されたものです。
星図はステラナビゲータ Ver.10 (アストロアーツ) で作成したものです。
光度グラフはComet for Windowsで作成したものです。

---------------------------------------------------------------------

Copyright(C) Seiichi Yoshida (comet@aerith.net). All rights reserved.